Regional Weather Roundup
Issued by NWS Charleston, SC

Current Version | Previous Version | Graphics & Text | Print | Product List | Glossary On
Versions: 1 2 3 4 5 6 7 8 9 10 11 12 13 14 15 16 17 18 19 20 21 22 23 24 25 26 27 28 29 30 31 32 33 34 35 36 37 38 39 40 41 42 43 44 45 46 47 48 49 50
530
ASUS42 KCHS 190312
RWRCHS

REGIONAL WEATHER ROUNDUP
NATIONAL WEATHER SERVICE CHARLESTON SC
1000 PM EST WED JAN 18 2017

NOTE: "FAIR" INDICATES FEW OR NO CLOUDS BELOW 12,000 FEET WITH NO
SIGNIFICANT WEATHER AND/OR OBSTRUCTIONS TO VISIBILITY.

NOT ALL STATIONS ARE QUALITY CONTROLLED. USE DATA WITH CAUTION...
ESPECIALLY DEWPOINT OBSERVATIONS.

SCZ027-030-031-034>040-042>050-190400-
...SOUTHEAST SOUTH CAROLINA...

CITY           SKY/WX    TMP DP  RH WIND       PRES   REMARKS
N CHARLESTON   CLEAR     65  58  78 W5        30.04R
WATERFRONT PRK   N/A     68  61  78 VRB3      30.02R
MOUNT PLEASANT FAIR      66  61  82 W6        30.04R
JOHNS ISLAND   FAIR      66  61  82 W3        30.04S
PINOPOLIS        N/A     64  61  88 SW6       29.94R
MONCKS CORNER  FAIR      59  55  88 SW3       30.04R
SUMMERVILLE    FAIR      61  61 100 CALM      30.05S
BEAUFORT MCAS  CLEAR     65  58  78 W3        30.05S
BEAUFORT ARPT  NOT AVBL
HILTON HEAD IS CLEAR     66  59  77 VRB6      30.06S
WALTERBORO     CLEAR     63  59  88 W5        30.06R
ALLENDALE      FAIR      61  59  94 CALM      30.04S

...SOUTHERN MIDLANDS AND PEE DEE...

CITY           SKY/WX    TMP DP  RH WIND       PRES   REMARKS
GEORGETOWN     FAIR      54  54 100 CALM      30.05R
KINGSTREE      FAIR      50  48  93 CALM      30.04R
ORANGEBURG     CLEAR     62  57  83 SW3       30.04R
BARNWELL       FAIR      63  61  94 CALM      30.06R
AIKEN          FAIR      55  46  71 W3        30.09R
MANNING        FAIR      54  45  71 CALM      30.03S
COLUMBIA       CLEAR     55  46  71 CALM      30.03S
SUMTER         CLEAR     52  46  77 CALM      30.02R
FLORENCE       CLEAR     52  43  71 CALM      30.04R
MYRTLE BEACH   CLEAR     54  46  76 N7        30.05R
N MYRTLE BEACH CLEAR     50  49  96 CALM      30.03R

$$

GAZ063-065-086>088-099>101-113>116-118-119-134>141-150-190400-
...SOUTHEAST GEORGIA...

CITY           SKY/WX    TMP DP  RH WIND       PRES   REMARKS
SAVANNAH ARPT  CLEAR     65  57  75 W7        30.06R
HUNTER AAF     CLEAR     67  60  80 SW7       30.03S
FORT STEWART   CLEAR     64  58  80 W6        30.05F
STATESBORO     CLEAR     67  61  81 NW7       30.05F
SYLVANIA       CLEAR    N/A N/A N/A CALM      30.07R
CLAXTON        FAIR     N/A N/A N/A CALM      30.08S

...CSRA...CENTRAL AND FAR SOUTHEAST GEORGIA...

CITY           SKY/WX    TMP DP  RH WIND       PRES   REMARKS
THOMSON        CLEAR     62  55  77 CALM      30.11S
AUGUSTA-BUSH   CLEAR     63  57  81 W6          N/A
AUGUSTA-DANIEL CLEAR     67  50  54 W8        30.06R
SWAINSBORO     FAIR      63  59  88 MISG      30.08S
VIDALIA        CLEAR     63  61  94 SW3       30.09S
EASTMAN        FAIR      61  61 100 CALM      30.12S
HAZLEHURST     FAIR      63  62  97 CALM      30.09S
ALMA           PTCLDY    60  59  96 CALM      30.09S
WAYCROSS       CLEAR     65  65 100 CALM      30.10S
JESUP          FAIR      63  57  82 W3        30.09S
BAXLEY         FAIR      64  64 100 CALM      30.09S
BRUNSWICK      CLEAR     64  61  88 W6        30.10R
SAINT SIMONS   CLEAR     64  59  83 SW6       30.09S

$$

SCZ027-028-034-036>038-045-046-048>050-GAZ119-141-190400-
...LAKE AND SUPPLEMENTAL COASTAL OBSERVATIONS...

STATION/POSITION TIME  TEMP    WIND        PRES    WAVE   SWELL
                       AIR SEA DIR/SP/G            HT/PER HT/PER/DIR
                 (UTC) (F)     (DEG/KT/KT) (MB)    (FT/S) (FT/S/D)
WINYAH BAY       NOT AVBL
LAKE MURRAY      0220   60      CALM  /  3 1016.9
ACE BASIN NERRS  0145   67        CALM     1017.0
FORT PULASKI     0248   67 57  260/  6/  8 1017.9R
SAPELO ISLAND    0200   63     210/  4     1019.0

$$

ANZ835-935-AMZ111-154-330-350-352-354-370-450-454-472-190400-
...C-MAN AND BUOY OBSERVATIONS...

STATION/POSITION TIME  TEMP    WIND        PRES    WAVE   SWELL
                       AIR SEA DIR/SP/G            HT/PER HT/PER/DIR
                 (UTC) (F)     (DEG/KT/KT) (MB)    (FT/S) (FT/S/D)
BUOY 41004       0150   70 71  260/ 16/ 17 1015.9    4/ 5   2/200/16
BUOY 41008       0150   63 60  230/  8/ 10 1018.1    1/ 8   2/ 80/ 8
FOLLY BEACH CMAN 0200   64     250/  4/  6 1017.4R
CAPERS NEARSHORE 0208   58 55  260/  8/  8 1016.7R
FRIPP NEARSHORE  0208   61 58  260/  6/  8 1017.2R


STATION/POSITION TIME  TEMP    WIND        PRES    WAVE   SWELL
                       AIR SEA DIR/SP/G            HT/PER HT/PER/DIR
                 (UTC) (F)     (DEG/KT/KT) (MB)    (FT/S) (FT/S/D)
5E ST. MARYS GA  0230      63                N/A     1/ 9
FRYING PAN BUOY  0250   66 71   50/ 16/ 21 1016.5R   4/ 6   2/210/ 6
BUOY 41025       0250   55 74   10/ 19/ 25 1016.3R   6/ 6   2/ 90/14
CAPE LOOKOUT NC  0200   51      20/ 10/ 12 1017.1R
BUOY 41002       0250   72 72  350/ 21/ 25 1014.1R   9/ 8
BUOY 41010       NOT AVBL
ST AUGUSTINE FL  0300   68 63  280/  5/  6 1020.2S


$$




USA.gov is the U.S. government's official web portal to all federal, state and local government web resources and services.